View from above orbital plane
|
View from above satellite
|
Ground track
|
The orbit data is extracted from the following two-line orbital elements,
1 01726U 65089A 21023.56866610 -.00000087 00000-0 -70043-4 0 9995
2 01726 59.3797 138.8120 0717311 12.8553 61.8471 11.97050721413733
Epoch (UTC): | 23 January 2021 13:38:52 |
Eccentricity: | 0.0717311 |
inclination: | 59.3797° |
perigee height: | 1115 km |
apogee height: | 2273 km |
right ascension of ascending node: | 138.8120° |
argument of perigee: | 12.8553° |
revolutions per day: | 11.97050721 |
mean anomaly at epoch: | 61.8471° |
orbit number at epoch: | 41373 |
The dashed part of the orbit path shows where the satellite is in the earth's shadow,
|
|